NOAA 16 DEB, 41424

Orbit data source: Space-Track

NOAA 16 DEB, 41424 is space debris in SSO originally from a launch on Thu, 21 Sep 2000 UTC launched from the Air Force Western Test Range (AFWTR). Debris objects in space refer to the collection of defunct objects orbiting the Earth. Examples of debris include non-operational satellites, rocket bodies, and fragments generated from explosions, collisions, or faulty payload assembly.

Loading next visibility...
Identifier
41424, 2000-055LD
Orbit
SSO
Country
Flag of USUS
Related business
Manufacturer
Unknown
Mission
Spacecraft
Bus & Motor
Unknown
Mass
Unknown
Launch date (UTC)
2000-09-21 (25 years ago)
Launch vehicle
Unknown
Launch site
Air Force Western Test Range (AFWTR)
Object type
Payload
Rocket body
Debris
Shape & HBR
Unknown shape, 0.1 m
Radar Cross Section
Small (<0.1 m²)

Expand to show TLE details & history
Last TLE update: 2 days ago

TLE from 2 days ago
0 NOAA 16 DEB
1 41424U 00055LD  25351.85538269  .00004801  00000-0  15879-2 0  9992
2 41424  98.9462 136.2712 0022407 328.1158  31.8670 14.38294992508740
Epoch: 2025-12-17T20:31Z
TLE epoch observation values (Epoch: 2025-12-17T20:31:45.064Z)
Latitude
-0.00005°
Longitude
101.61419°
Altitude
753.485 km
Speed
7.485 km/s
True Right ascension
09h 05m 05s
True Declination
0° 00' 00"
Sunlit
Object was in full shadow at epoch
Visualization orbit readout
Latitude
Unknown
Longitude
Unknown
Altitude
Unknown
Speed
Unknown
Apparent Right ascension
Unknown
Apparent Declination
Unknown
Sunlit
N/A
Visualization observer readout
Local Sidereal Time
09:39:26
Azimuth
Unknown
Elevation
Unknown
Doppler factor
Unknown
Orbital elements
Apogee altitude
777.28 km
Perigee altitude
745.286 km
Semi-major axis
7,139.42 km
Eccentricity
0.00224
Inclination
98.9462°
RAAN
136.2712°
Arg. of periapsis
328.1158°
True anomaly
32.00288°
Mean anomaly
31.867°
Eccentric anomaly
31.93491°
Mean motion
3.5979 °/min
Orbital period
100.06 mins
BSTAR
0.0015879
Loading maneuver chart data...
Computing Atmospheric mass density...
Loading historical data...
Loading historical data...
Loading historical data...
Loading historical data...
Loading historical data...
Loading historical data...
Loading historical data...

Documentation

Showing up to 5 results
|